User: anonymous   Login
Location: Aalen
(48.8330°N, 10.1000°E)
Time: 22:43:13
(UTC+01:00)
Language:

IRIDIUM 33 DEB - Orbit

View from above orbital plane
View from above orbital plane
View from above satellite
View from above satellite

Ground track
Ground track

The orbit data is extracted from the following two-line orbital elements,

1 38022U 97051YJ  22020.42189941  .00000922  00000-0  34973-3 0  9993
2 38022  86.2774 270.7011 0058192   1.6103 358.5266 14.29151896488084
Epoch (UTC): 20 January 2022 10:07:32
Eccentricity: 0.0058192
inclination: 86.2774°
perigee height: 753 km
apogee height: 836 km
right ascension of ascending node: 270.7011°
argument of perigee: 1.6103°
revolutions per day: 14.29151896
mean anomaly at epoch: 358.5266°
orbit number at epoch: 48808

The dashed part of the orbit path shows where the satellite is in the earth's shadow,  

DLR